NOAA 16 DEB

Satellite information

Favourite Embed

Satellite Type and Status

DEBRISIN ORBIT

Key statistics

Satellite NOAA 16 DEB at a glance.

Uptime

9054

Days in orbit

Revolutions

≈ 14.5

Per day

Orbit

SSO

Sun Synchronous Orbit

Inclination

98.9

Latest

Satellite identification and parameters

Extended collection of information and parameters for NOAA 16 DEB.

Object identification

Identified? True

Debris? True

Object name: NOAA 16 DEB

International designator: 2000-055MU

Object number (NORAD): 41520

Object ID (CCSDS): 41520

Country: UNITED STATES OF AMERICA (US)

Current information (Y/N): Y

RCS size: SMALL

Orbital parameters

Period: 99.014 minutes

Inclination: 98.8825 deg

SMA: 7089.63 km

Apoapsis: 730.15 km

Periapsis: 692.84 km

RAAN: 306.4867 deg

Eccentricy: 0.0026313

Argument of periapsis: 311.9231 deg

Mean anomaly: 47.972 deg

Mean motion: 14.54344951 rev/day

Mean motion (dot): 0.00015732 rev/day2

B* drag term: 0.0036918 1/REarth

Two-line elements (TLE)

Creation date: July 5, 2025, 5:45 p.m.

Reference frame: TEME

Reference center: EARTH

Epoch: July 5, 2025, 6:43 a.m. UTC

TLE line 0: 0 NOAA 16 DEB

TLE line 1: 1 41520U 00055MU 25186.27999225 .00015732 00000-0 36918-2 0 9996

TLE line 2: 2 41520 98.8825 306.4867 0026313 311.9231 47.9720 14.54344951475929

Live tracking on map

Real-time ground track for satellite NOAA 16 DEB.

In-orbit conjunctions

A list of the most updated potential collisions computed for object NOAA 16 DEB.

Target Orbit TCA Probability of collision Miss distance Type
CZ-6A DEB LEO 2025-01-22 19:27:11 0.0001150579 416.0 (m) DEBRIS
PICOSAT 6 SSO 2024-12-30 12:00:05 0.0001361276 409.0 (m) PAYLOAD

Associated space launch

The NOAA K, L and M POES satellites begin the fifth generation of improved environmental monitoring in support of NOAA missions. The instrument payload has significant improvements and additions/deletions. The instrument changes have effected the spacecraft subsystems and data formats.

NOAA 16 DEB was lifted into orbit during the mission ‘Titan II SLV | NOAA 16’, on board a Titan II SLV space rocket.

The launch took place on Sept. 21, 2000, 10:22 a.m. from Space Launch Complex 4W.

For more information about the launch, click the button.

Launch to space Titan II SLV | NOAA 16
Titan II SLV | NOAA 16

Agency: N/A

Status: Launch Successful

Launch date: Sept. 21, 2000, 10:22 a.m. UTC

Rocket: Titan II SLV

Launch pad: Space Launch Complex 4W

Location: Vandenberg SFB, CA, USA

...

Latest news about this satellite

There are no fresh news available about this satellite. Check back as we update our databases every day.


Newsletter sign-up

Weekly statistics, charts and insights to help you stay on top of the space industry.